Location: Sternwarte_Laufen
(47.9344°N, 12.9346°E)
Time: 09:17:57
(UTC+02:00)

ISS - Pass Details

Date: 26 May 2017
Orbit: 401 x 408 km, 51.6° (Epoch: 28 June)

Event Time Altitude Azimuth Distance (km) Brightness Sun altitude
Rises 01:45:02 0° 289° (WNW) 2,339 0.2 -20.4°
Reaches altitude 10° 01:47:10 10° 295° (WNW) 1,475 -0.8 -20.3°
Maximum altitude 01:50:24 51° 12° (NNE) 523 -3.0 -20.2°
Drops below altitude 10° 01:53:37 10° 90° (E) 1,467 -0.9 -20.1°
Sets 01:55:44 0° 96° (E) 2,324 0.1 -20.0°
